Regional Weather Roundup
Issued by NWS Green Bay, WI

Home | Current Version | Previous Version | Graphics & Text | Print | Product List | Glossary Off
Versions: 1 2 3 4 5 6 7 8 9 10 11 12 13 14 15 16 17 18 19 20 21 22 23 24 25 26 27 28 29 30 31 32 33 34 35 36 37 38 39 40 41 42 43 44 45 46 47 48 49 50

759
ASUS43 KGRB 031800
RWRGRB

NORTH-CENTRAL AND NORTHEAST WISCONSIN REGIONAL WEATHER ROUNDUP
NATIONAL WEATHER SERVICE GREEN BAY WI
1200 PM CST SAT DEC 03 2016

WIZ005-009-010>012-018-019-031900-
NORTH CENTRAL WISCONSIN

CITY           SKY/WX    TMP DP  RH WIND       PRES   REMARKS
IRONWOOD       CLOUDY    31  27  85 W5        30.23F
MANITOWISH WTR NOT AVBL
ARBOR VITAE    NOT AVBL
EAGLE RIVER    NOT AVBL
LAND O LAKES   NOT AVBL
RHINELANDER    CLOUDY    28  22  78 CALM      30.22F
PHILLIPS       NOT AVBL
ANTIGO         NOT AVBL
TOMAHAWK       NOT AVBL
MERRILL        NOT AVBL
$$

WIZ013-073-031900-
NORTHEAST WISCONSIN

CITY           SKY/WX    TMP DP  RH WIND       PRES   REMARKS
IRON MOUNTAIN  CLOUDY    33  25  72 NW5       30.21F
MARINETTE      CLOUDY    34  27  75 VRB3      30.26F
$$

WIZ017-030-035>037-045-031900-
CENTRAL WISCONSIN

CITY           SKY/WX    TMP DP  RH WIND       PRES   REMARKS
MEDFORD        NOT AVBL
WAUSAU         CLOUDY    29  21  72 NW6       30.23F
MOSINEE        CLOUDY    28  25  86 NW5       30.25F
MARSHFIELD     CLOUDY    29  23  78 W6        30.24F
WISC RAPIDS    CLOUDY    30  23  75 W6        30.28S
STEVENS POINT  NOT AVBL
WAUPACA        NOT AVBL
SHAWANO        NOT AVBL
CLINTONVILLE   NOT AVBL
WAUTOMA        CLOUDY    32  22  66 VRB3      30.28F
$$

WIZ038-039-048-051-031900-
FOX VALLEY

CITY           SKY/WX    TMP DP  RH WIND       PRES   REMARKS
NWS GREEN BAY  CLOUDY    33  25  72 W7        30.27F
APPLETON       CLOUDY    30  21  69 NW5       30.25F
OSHKOSH        CLOUDY    32  21  64 W5        30.27S
FOND DU LAC    CLOUDY    32  20  61 W3        30.28F
$$

WIZ022-050-052-031900-
EAST CENTRAL WISCONSIN

CITY           SKY/WX    TMP DP  RH WIND       PRES   REMARKS
EPHRAIM        NOT AVBL
WASHINGTON ISL NOT AVBL
STURGEON BAY   CLOUDY    33  26  75 W7        30.25F
MANITOWOC      NOT AVBL
SHEBOYGAN      CLOUDY    32  24  72 W9        30.28F
$$

LMZ563-521-522-541>543-031900-
LAKESHORE

STATION/POSITION TIME  TEMP    WIND        PRES    VSBY  WAVE
                       AIR SEA DIR/SP/G                  HT/PER
                 (UTC) (F)     (DEG/KT/KT) (MB)    (MI)  (FT/S)
SHEBOYGAN LKSHOR 1700   32     300/  6/  7 1026.3F
KEWAUNEE LKSHORE 1730   33     290/  7/ 10 1024.4F
ALGOMA MARINA    1721          310/ 10/ 12   N/A
NORTHPORT PIER   1740   37     280/  5/  8 1024.0F
SISTER BAY LKSHO 1753   36     330/ 10/ 12   N/A
CHAMBERS ISLAND  1740   35     240/  5/  8 1024.0F
MENOMINEE LKSHOR 1724   33     220/  8/ 10 1024.0
$$




USA.gov is the U.S. government's official web portal to all federal, state and local government web resources and services.